Regional Weather Roundup
Issued by NWS

Home | Current Version | Previous Version | Text Only | Print | Product List | Glossary On
Versions: 1 2 3 4 5 6 7 8 9 10 11 12 13 14 15 16 17 18 19 20 21 22 23 24 25 26 27 28 29 30 31 32 33 34 35 36 37 38 39 40 41 42 43 44 45 46 47 48 49 50
000
ASUS45 KPSR 242010
RWRAZ

ARIZONA REGIONAL HOURLY WEATHER ROUNDUP
NATIONAL WEATHER SERVICE PHOENIX AZ
100 PM MST FRI OCT 24 2014

NOTE: FAIR INDICATES FEW OR NO CLOUDS BELOW 12,000 FEET WITH NO
SIGNIFICANT WEATHER AND/OR OBSTRUCTIONS TO VISIBILITY.

AZZ001>003-036-242100-
NORTHWEST ARIZONA

CITY           SKY/WX    TMP DP  RH WIND       PRES   REMARKS
BULLHEAD CITY  SUNNY     90  41  18 S6        30.00F
KINGMAN        SUNNY     82  38  20 W3        30.14F
$$

AZZ004>008-015-016-018-242100-
NORTH CENTRAL ARIZONA

CITY           SKY/WX    TMP DP  RH WIND       PRES   REMARKS
GRAND CANYON   SUNNY     73  23  15 CALM      30.35F
PRESCOTT       SUNNY     78  35  21 VRB5      30.25F
FLAGSTAFF      SUNNY     71  28  20 SW10      30.37F
PAYSON         SUNNY     75  39  27 SW8       30.28F
PAGE           SUNNY     72  34  24 CALM      30.22F
$$

AZZ009>014-017-242100-
NORTHEAST ARIZONA

CITY           SKY/WX    TMP DP  RH WIND       PRES   REMARKS
WINSLOW        SUNNY     80  40  23 NE7       30.24F
SAINT JOHNS    SUNNY     76  37  24 VRB6      30.28F
WINDOW ROCK    SUNNY     76  24  14 SW10      30.35F
SHOW LOW       SUNNY     72  37  28 S6        30.35F
$$

AZZ023-242100-
GREATER PHOENIX AREA

CITY           SKY/WX    TMP DP  RH WIND       PRES   REMARKS
PHOENIX        SUNNY     90  47  22 CALM      29.99F
BUCKEYE          N/A     90  50  25 E9        30.00F
GLENDALE       SUNNY     90  48  24 CALM      30.02F
LUKE AFB       SUNNY     89  50  25 CALM      30.00F
DEER VALLEY    SUNNY     88  46  23 CALM      30.02F
SCOTTSDALE     SUNNY     90  47  22 CALM      30.03F
MESA-FALCON    SUNNY     91  50  24 CALM      30.01F
MESA-GATEWAY   SUNNY     88  52  29 W5        30.03F
CHANDLER       SUNNY     90  50  25 CALM      30.02F
$$

AZZ027-028-242100-
SOUTHWEST MARICOPA COUNTY AND PINAL COUNTY

CITY           SKY/WX    TMP DP  RH WIND       PRES   REMARKS
CASA GRANDE    SUNNY     88  46  23 CALM      30.03F
GILA BEND      CLEAR     95  48  20 N2        29.99F
$$

AZZ503-504-507>509-242100-
SOUTHEAST ARIZONA

CITY           SKY/WX    TMP DP  RH WIND       PRES   REMARKS
TUCSON         SUNNY     90  43  19 CALM      30.09F
DAVIS-MONTHAN  SUNNY     89  43  20 S5        30.07F
RYAN FIELD       N/A     91  46  21 CALM      30.07F
NOGALES        SUNNY     87  44  22 MISG      30.16F
SIERRA VISTA   MOSUNNY   84  43  23 SW7       30.21F
DOUGLAS        SUNNY     83  44  25 CALM      30.19F
SAFFORD        SUNNY     83  46  27 MISG      30.13F
$$

AZZ020-021-025-026-031-242100-
SOUTHWEST ARIZONA

CITY           SKY/WX    TMP DP  RH WIND       PRES   REMARKS
YUMA           SUNNY     95  39  14 CALM      29.93F
$$

CAZ031-033-041-043-047-048-061-242100-
SOUTHERN CALIFORNIA

CITY           SKY/WX    TMP DP  RH WIND       PRES   REMARKS
DOWNTOWN L.A.  SUNNY     87  41  19 VRB5      29.95F
L.A. AIRPORT   SUNNY     76  59  55 W9        29.96F
SAN DIEGO      SUNNY     83  57  41 NW7       29.96F
BURBANK        SUNNY     87  39  18 SE6       29.97F
ONTARIO        SUNNY     89  35  14 SW5       29.97F
RIVERSIDE      SUNNY     89  38  16 VRB5      29.96F
PALM SPRINGS   SUNNY     93  42  17 SE10      29.97F
EL CENTRO NAS  SUNNY     92  46  20 VRB6      29.93F
IMPERIAL       SUNNY     92  47  21 SE5       29.93F
BLYTHE         SUNNY     91  46  21 VRB5      29.96F
NEEDLES        SUNNY     89  40  17 VRB3      30.00F
$$

NVZ020-UTZ003-242100-
SOUTHERN NEVADA-UTAH

CITY           SKY/WX    TMP DP  RH WIND       PRES   REMARKS
LAS VEGAS      SUNNY     82  37  20 CALM      30.04F
SALT LAKE CITY MOSUNNY   77  29  17 S17       30.12F
$$

NMZ009-TXZ055-242100-
NEW MEXICO-WEST TEXAS

CITY           SKY/WX    TMP DP  RH WIND       PRES   REMARKS
ALBUQUERQUE    SUNNY     74  32  21 CALM      30.28F
EL PASO        SUNNY     81  45  28 CALM      30.19F
$$


........................KEY........................
SKY/WX - SKY CONDITION/WEATHER
TMP    - TEMPERATURE IN FAHRENHEIT
DP     - DEW POINT IN FAHRENHEIT
RH     - RELATIVE HUMIDITY IN PERCENT
WIND   - DIRECTION AND SPEED IN MILES PER HOUR (MPH)
VRB    - VARIABLE WIND DIRECTION
PRES   - MEAN SEA LEVEL PRESSURE IN INCHES OF MERCURY
         F - FALLING PRESSURE   R - RISING PRESSURE
         S - STEADY PRESSURE
VSB    - VISIBILITY IN MILES
HX     - HEAT INDEX IN FAHRENHEIT
WCI    - WIND CHILL INDEX IN FAHRENHEIT
TC     - TEMPERATURE IN CELSIUS WHICH IS ALSO KNOWN AS
         TEMPERATURE IN CENTIGRADE
AFB    - AIR FORCE BASE
         LUKE AFB IS LUKE AIR FORCE BASE
         DAVIS-MONTHAN IS DAVIS-MONTHAN AIR FORCE BASE
NAS    - NAVAL AIR STATION
         EL CENTRO NAS IS EL CENTRO NAVAL AIR STATION
N/A    - NOT AVAILABLE



USA.gov is the U.S. government's official web portal to all federal, state and local government web resources and services.